Location: Westminster
(33.3626°N, 96.4619°W)
Time: 20:43:44
(UTC+00:00)

Cosmos 1763 Rocket - Pass Details

Date: 08 July 2022
Orbit: 732 x 780 km, 74.0° (Epoch: 13 August)

Event Time Altitude Azimuth Distance (km) Brightness Sun altitude
Exits shadow 05:21:35 11° 59° (ENE) 2,240 6.0 -31.8°
Drops below altitude 10° 05:21:52 10° 57° (ENE) 2,310 6.1 -31.8°
Sets 05:25:02 0° 38° (NE) 3,249 7.2 -32.0°
